www.pogodaiklimat.ru

Погода и климат >> Архив погоды >> Украина >> Фастов


ПОГОДА в Фастове

  • Прогноз погоды в Фастове
  • Монитор погоды в Фастове

АРХИВ ПОГОДЫ в Фастове

Время (UTC), дата Ветер
(напр.,м/с)
 
Видим.   Явления Облачность Т
(С)
Тd
(С)
f
(%)
Тe
(С)
Тes
(С)
Комфортность P
(гПа)
Po
(гПа)
Тmin
(С)
Tmax
(С)
R
(мм)
R24
(мм)
S
(см)
15 18.06 СЗ 3 20 км 1/1 1000 м
[Cu hum]
+26.5 +15.2 50 +29 +33 жарко 1015.6 991.7
18 18.06 С 1 20 км 1/0
[Ci fib]
+24.4 +14.7 55 +27 +27 жарко 1015.8 991.7 +28.3
21 18.06 С 2 15 км 4/0
[Ci fib]
+23.2 +15.0 60 +27 +27 душно 1017.0 992.8
00 19.06 С 1 14 км 3/0
[Ci fib]
+19.6 +13.7 69 +22 +22 комфорт 1017.1 992.6
03 19.06 С 1 20 км 8/6 600 м
[Sc Ci fib]
+18.9 +14.4 75 +21 +21 комфорт 1017.1 992.5
06 19.06 В 3 20 км 1/0
[Ac trans]
+23.4 +16.4 65 +28 +34 душно 1016.9 992.7 +18.0
12 19.06 В 3 20 км 6/6 1000 м
[Cu med, cong]
+28.2 +14.1 42 +30 +35 жарко 1015.5 991.7
18 19.06 штиль 0 20 км 6/0
[Ci]
+23.8 +16.1 62 +27 +27 жарко 1014.5 990.4 +29.0
21 19.06 штиль 0 13 км 6/0
[Ci fib]
+20.1 +16.1 78 +23 +23 комфорт 1015.1 990.7
00 20.06 штиль 0 12 км 3/0
[Ci fib]
+19.1 +15.4 79 +20 +20 1015.3 990.8
03 20.06 СВ 1 20 км ясно +20.2 +15.7 75 +24 +25 комфорт 1014.9 990.5
06 20.06 В 3 20 км ясно +24.5 +17.8 66 +29 +35 душно 1014.7 990.6 +18.5
09 20.06 ЮВ 3 20 км 8/8 1000 м
[Cu med, cong]
+28.9 +17.8 51 +33 +36 очень
душно
1014.3 990.6
12 20.06 ЮВ 3 20 км 9/9 1000 м
[Cu med, cong]
+28.4 +16.8 49 +32 +33 душно 1013.7 990.0
15 20.06 В 3 20 км 4/4 1000 м
[Cu hum]
+27.6 +17.0 52 +31 +34 душно 1013.1 989.3
18 20.06 ЮВ 1 20 км 3/0
[Ci]
+24.8 +18.4 68 +29 +29 душно 1013.2 989.2 +30.5
21 20.06 ЮВ 1 13 км 3/0
[Ci fib]
+21.5 +16.6 74 +25 +25 комфорт 1014.5 990.2
00 21.06 ЮВ 1 12 км ясно +20.2 +15.7 75 +24 +24 комфорт 1015.1 990.7
03 21.06 ЮВ 2 20 км 3/0
[Ci fib]
+19.7 +15.0 74 +22 +23 комфорт 1015.6 991.1
06 21.06 ЮВ 2 20 км ясно +26.0 +17.2 58 +30 +38 душно 1015.3 991.3 +19.5
09 21.06 В 3 20 км 3/0
[Ci fib]
+30.8 +15.1 39 +33 +46 душно 1015.1 991.5
12 21.06 Ю 2 20 км 4/3 1000 м
[Cu med, cong Ci fib]
+30.6 +14.9 39 +33 +43 душно 1014.5 990.9
15 21.06 ЮВ 2 20 км 4/3 1000 м
[Cu med, cong Ci fib]
+29.8 +15.4 42 +33 +36 душно 1013.8 990.2
18 21.06 ЮВ 1 20 км 3/0
[Ci fib]
+25.9 +16.2 55 +29 +29 душно 1014.2 990.3 +32.2
21 21.06 В 1 14 км ясно +21.8 +15.3 67 +25 +25 комфорт 1015.3 991.0
00 22.06 ЮВ 2 14 км 8/8 600 м
[Sc]
+20.0 +14.7 72 +23 +23 комфорт 1015.6 991.2
03 22.06 В 1 20 км 8/6 600 м
[Cb calv Ci fib]
+21.0 +15.3 70 +25 +26 комфорт 1015.7 991.3
06 22.06 Ю 2 20 км 3/3 1000 м
[Sc]
+25.5 +16.1 56 +29 +34 душно 1015.9 991.9 +19.2
09 22.06 ЮВ 3 20 км 1/1 1000 м
[Cu hum]
+31.2 +15.5 39 +34 +46 душно 1015.7 992.1
12 22.06 Ю 1 20 км 4/4 1000 м
[Cu hum]
+32.0 +15.3 37 +34 +45 душно 1015.1 991.6
15 22.06 ЮЗ 2 20 км 6/3 1000 м
[Cu hum Cs]
+31.2 +16.9 42 +35 +38 очень
душно
1013.8 990.3
18 22.06 З 1 20 км 8/4 1000 м
[Sc Cs]
+25.6 +18.2 64 +30 +30 душно 1015.4 991.4 +33.5
21 22.06 З 1 15 км ясно +23.4 +17.8 71 +29 +29 душно 1016.0 991.8
00 23.06 СЗ 1 14 км 4/0
[Ci fib]
+20.5 +16.6 78 +25 +25 комфорт 1015.9 991.5
06 23.06 С 3 10 км слаб. ливневой дождь, в посл. час гроза 9/8 600 м
[Cb cap Ac trans]
+20.4 +18.8 91 +25 +25 комфорт 1016.0 991.6 +19.0 1
12 23.06 СЗ 3 20 км {ливн. осадки} 9/3 600 м
[Cb calv Ac trans Cc]
+26.8 +20.3 68 +33 +38 очень
душно
1015.4 991.5
18 23.06 С 2 20 км гроза без осадков {ливн. осадки} 9/9 600 м
[Cb cap]
+21.0 +17.6 81 +26 +26 душно 1016.3 991.9 +30.0 2
00 24.06 С 2 11 км {гроза, ливн. осадки} 6/0
[Ci fib]
+18.5 +16.2 86 +20 +20 1017.7 993.1
06 24.06 С 4 10 км 9/4 600 м
[Sc Ac As]
+19.5 +17.7 89 +22 +23 комфорт 1019.4 994.8 +17.4 1
12 24.06 С 3 20 км 3/3 1000 м
[Cu med, cong]
+29.4 +18.0 50 +34 +42 очень
душно
1019.0 995.2
18 24.06 СВ 3 20 км {гроза} 8/3 600 м
[Sc Cs]
+26.8 +16.9 55 +31 +31 душно 1020.6 996.6 +31.2
06 25.06 С 3 20 км 3/0
[Ac trans Ci fib]
+23.0 +15.5 63 +27 +33 душно 1024.9 1000.5 +18.5

 

Местоположение метеостанции Фастов (Киевская область, Украина): широта 50.08 долгота 29.92 высота над уровнем моря 209 м.

В архиве по умолчанию представлена погода в Фастове за последнюю неделю. Архивные данные за месяц целиком и за предыдущие месяцы, начиная с января 2011 года, Вы можете получить, выбрав интересующий диапазон дат из раскрывающегося списка и нажав кнопку "Ввод!".


*Определитесь, кто Вы:
робот инопланетянин человек

Внимание! Время в таблицах - всемирное. Для получения местного времени необходимо прибавить поправку, которая равна 2 ч.

Смотрите также архив погоды в соседних городах и на ближайших метеорологических станциях:

Погода в Белой Церкви (Киевская область, Украина) (39 км)
Погода в Киеве (город Киев, Украина) (58 км)
Погода в Вышгороде (Киевская область, Украина) (68 км)
Погода в Тетереве (Киевская область, Украина) (73 км)
Погода в Белополе (Винницкая область, Украина) (79 км)
Погода в Борисполе (Киевская область, Украина) (80 км)
Погода в Житомире (Житомирская область, Украина) (86 км)
Погода в Мироновке (Киевская область, Украина) (90 км)
Погода в Жашкове (Черкасская область, Украина) (93 км)
Погода в Барышевке (Киевская область, Украина) (105 км)

Пояснения к столбцам:

Ветер - указаны скорость ветра в м/с - средняя за 10 мин, порывы в срок и между сроками (в фигурных скобках) и направление, откуда дует ветер: С - северный, СВ - северо-восточный, В - восточный, ЮВ - юго-восточный, Ю - южный, ЮЗ - юго-западный, З - западный, СЗ - северо-западный.
Видимость - горизонтальная дальность видимости в метрах или километрах. При видимости от 1 до 10 км при отсутствии осадков обычно наблюдается дымка, при ухудшении видимости до 1 км и менее - туман. В сухую погоду видимость может ухудшаться дымом, пылью или мглою.
Явления - указаны атмосферные явления, наблюдавшиеся в срок или в последний час перед сроком; фигурными скобками обозначены явления, наблюдавшиеся между сроками (за 1-3 часа до срока); квадратными скобками обозначены град или гололедные отложения с указанием их диаметра в мм.
Облачность - указаны через наклонную черту общая и нижняя облачность в баллах и высота нижней границы облаков в метрах; квадратными скобками обозначены формы облаков: Ci - перистые, Cs - перисто-слоистые, Cc - перисто-кучевые, Ac - высококучевые, As - высокослоистые, Sc - слоисто-кучевые, Ns - слоисто-дождевые, Cu - кучевые, Cb - кучево-дождевые. Подробнее классификацию облаков см. в Атласе облаков (PDF).
T - Температура воздуха - температура, измеренная на высоте 2 м над землей.
Td - Температура точки росы - температура, при понижении до которой содержащийся в воздухе водяной пар достигнет насыщения.
f - Относительная влажность воздуха - влажноcть воздуха, измеренная на высоте 2 м над землей.
Te - Эффективная температура - температура, которую ощущает одетый по сезону человек в тени. Характеристика душности погоды. При расчете учитывается влияние влажности воздуха и скорости ветра на теплоощущения человека.
Tes - Эффективная температура на солнце - температура, которую ощущает человек, с поправкой на солнечный нагрев. Характеристика знойности погоды. Зависит от высоты солнца над горизонтом, облачности и скорости ветра. Ночью, в пасмурную погоду, а также при ветре 12 м/с и более поправка равна нулю.
P - Атмосферное давление - приведенное к уровню моря атмосферное давление.
Po - Атмосферное давление - измеренное на уровне метеостанции атмосферное давление.
Tmin - Минимальная температура - минимум температуры воздуха на высоте 2 м над землей.
Tmax - Максимальная температура - максимум температуры воздуха на высоте 2 м над землей.
R - Количество осадков - Количество выпавших осадков за период времени, мм. При наведении курсора мыши на число - период времени, за который выпало указанное количество осадков.
R24 - Количество осадков - Количество выпавших осадков за 24 часа, мм.
S - Снежный покров - Высота снежного покрова, см. При наведении курсора мыши на число - состояние снежного покрова и степень покрытия местности в баллах.